Time,TemperatureF,DewpointF,PressureIn,WindDirection,WindDirectionDegrees,WindSpeedMPH,WindSpeedGustMPH,Humidity,HourlyPrecipIn,Conditions,Clouds,dailyrainin,SolarRadiationWatts/m^2,SoftwareType,DateUTC
2013-07-23 15:36:00,-999.0,-99.9,-100.00,West,272,3.0,-999.0,0,0.43,,,-99.99,59.900002,,2013-07-23 19:36:00,
2013-07-23 15:55:00,74.0,73.0,-100.00,WSW,240,2.0,-999.0,95,0.00,,,-99.99,62.599998,,2013-07-23 19:55:00,
2013-07-23 16:13:00,74.0,73.0,-100.00,WSW,238,2.0,-999.0,95,0.00,,,-99.99,63.599998,,2013-07-23 20:13:00,
2013-07-23 16:34:00,75.0,73.0,-100.00,SW,229,3.0,-999.0,95,0.00,,,-99.99,48.400002,,2013-07-23 20:34:00,
2013-07-23 16:59:00,75.0,74.0,-100.00,WSW,238,2.0,-999.0,95,0.00,,,-99.99,76.800003,,2013-07-23 20:59:00,
2013-07-23 17:36:00,76.0,74.0,-100.00,WSW,241,2.0,-999.0,95,0.00,,,-99.99,88.699997,,2013-07-23 21:36:00,
2013-07-23 17:47:00,76.0,75.0,-100.00,WNW,289,2.0,-999.0,95,0.00,,,-99.99,75.199997,,2013-07-23 21:47:00,
2013-07-23 17:57:00,76.0,75.0,-100.00,NW,312,3.0,-999.0,96,0.03,,,-99.99,32.299999,,2013-07-23 21:57:00,
2013-07-23 18:05:00,76.0,75.0,-100.00,NW,312,3.0,-999.0,96,0.03,,,-99.99,32.299999,,2013-07-23 22:05:00,
2013-07-23 18:34:00,75.0,74.0,-100.00,NW,314,2.0,-999.0,96,0.03,,,-99.99,14.800000,,2013-07-23 22:34:00,
2013-07-23 19:01:00,75.0,74.0,-100.00,SSE,162,1.0,-999.0,96,0.00,,,-99.99,30.799999,,2013-07-23 23:01:00,
2013-07-23 19:06:00,75.0,74.0,-100.00,SSE,162,1.0,-999.0,96,0.00,,,-99.99,30.799999,,2013-07-23 23:06:00,
2013-07-23 19:14:00,76.0,75.0,-100.00,WSW,253,1.0,-999.0,96,0.08,,,-99.99,77.000000,,2013-07-23 23:14:00,
2013-07-23 19:25:00,76.0,75.0,-100.00,SW,218,1.0,-999.0,95,0.00,,,-99.99,130.600006,,2013-07-23 23:25:00,
2013-07-23 19:35:00,76.0,75.0,-100.00,SW,218,1.0,-999.0,95,0.00,,,-99.99,130.600006,,2013-07-23 23:35:00,
2013-07-23 19:59:00,76.0,75.0,-100.00,NW,306,1.0,-999.0,95,0.00,,,-99.99,67.599998,,2013-07-23 23:59:00,
2013-07-23 20:15:00,76.0,75.0,-100.00,West,277,1.0,-999.0,96,0.00,,,-99.99,13.700000,,2013-07-24 00:15:00,
2013-07-23 20:26:00,76.0,75.0,-100.00,NW,308,2.0,-999.0,96,0.00,,,-99.99,35.500000,,2013-07-24 00:26:00,
2013-07-23 20:48:00,76.0,75.0,-100.00,West,277,1.0,-999.0,96,0.00,,,-99.99,13.700000,,2013-07-24 00:48:00,
2013-07-23 20:58:00,76.0,75.0,-100.00,West,277,1.0,-999.0,96,0.00,,,-99.99,13.700000,,2013-07-24 00:58:00,
2013-07-23 21:04:00,76.0,75.0,-100.00,West,277,1.0,-999.0,96,0.00,,,-99.99,13.700000,,2013-07-24 01:04:00,